DMSP 5D-2 F13 DEB, 40487

Orbit data source: Space-Track

DMSP 5D-2 F13 DEB, 40487 is space debris in SSO originally from a launch on Fri, 24 Mar 1995 UTC launched from the Air Force Western Test Range (AFWTR). Debris objects in space refer to the collection of defunct objects orbiting the Earth. Examples of debris include non-operational satellites, rocket bodies, and fragments generated from explosions, collisions, or faulty payload assembly.

Loading next visibility...
Identifier
40487, 1995-015CA
Orbit
SSO
Country
Flag of USUS
Related business
Manufacturer
Unknown
Mission
Spacecraft
Bus & Motor
Unknown
Mass
Unknown
Launch date (UTC)
1995-03-24 (30 years ago)
Launch vehicle
Unknown
Launch site
Air Force Western Test Range (AFWTR)
Object type
Payload
Rocket body
Debris
Shape & HBR
Unknown
Radar Cross Section
Small (<0.1 m²)

Expand to show TLE details & history
Last TLE update: 17 hours ago

TLE from 17 hours ago
0 DMSP 5D-2 F13 DEB
1 40487U 95015CA  25259.27448508  .00002761  00000-0  13509-2 0  9990
2 40487  99.0350 254.7188 0052458 200.5834 159.3227 14.18045844539625
Epoch: 2025-09-16T06:35Z
TLE epoch observation values (Epoch: 2025-09-16T06:35:15.51Z)
Latitude
-0.00008°
Longitude
160.43705°
Altitude
870.288 km
Speed
7.399 km/s
True Right ascension
16h 58m 52s
True Declination
0° 00' 00"
Sunlit
Object was in daylight at epoch
Visualization orbit readout
Latitude
Unknown
Longitude
Unknown
Altitude
Unknown
Speed
Unknown
Apparent Right ascension
Unknown
Apparent Declination
Unknown
Sunlit
N/A
Visualization observer readout
Local Sidereal Time
16:39:57
Azimuth
Unknown
Elevation
Unknown
Doppler factor
Unknown
Orbital elements
Apogee altitude
866.954 km
Perigee altitude
791.338 km
Semi-major axis
7,207.283 km
Eccentricity
0.00525
Inclination
99.035°
RAAN
254.7188°
Arg. of periapsis
200.5834°
True anomaly
159.53366°
Mean anomaly
159.3227°
Eccentric anomaly
159.42831°
Mean motion
3.5472 °/min
Orbital period
101.49 mins
BSTAR
0.0013509
Loading maneuver chart data...
Computing Atmospheric mass density...

Documentation

Showing up to 5 results
|